Tracking 19564 objects as of 18-Mar-2019
HD Live streaming from Space Station
objects crossing your sky now

TITAN 3C TRANSTAGE R/B

Track TITAN 3C TRANSTAGE R/B now!


NORAD ID: 3292
Int'l Code: 1968-050J
Perigee: 33,693.5 km
Apogee: 35,036.0 km
Inclination: 2.3 °
Period: 1,363.7 minutes
Semi major axis: 40735 km
RCS: 2.5129 m2 (large)
Launch date: June 13, 1968
Source: United States (US)
Launch site: AIR FORCE EASTERN TEST RANGE (AFETR)

Note: This is a ROCKET BODY
aabbcc
Your satellite tracking list
Your tracking list is empty




NASA's NSSDC Master Catalog

Two Line Element Set (TLE):
1  3292U 68050J   19076.88121330 -.00000075 +00000-0 +00000-0 0  9997
2  3292 002.3102 059.2281 0164773 307.3739 285.4525 01.05594009018534
Source of the keplerian elements: AFSPC